Tracking 23752 objects as of 23-Oct-2021
HD Live streaming from Space Station
objects crossing your sky now

FREGAT DEB

Track FREGAT DEB now!
10-day predictions


NORAD ID: 46006
Int'l Code: 2011-037HH
Perigee: 343.2 km
Apogee: 3,598.1 km
Inclination: 51.4 °
Period: 126.4 minutes
Semi major axis: 8341 km
RCS: Unknown
Launch date: July 18, 2011
Source: Commonwealth of Independent States (former USSR) (CIS)
Launch site: TYURATAM MISSILE AND SPACE COMPLEX (TTMTR)

Note: This is SATELLITE DEBRIS
aabbcc
Your satellite tracking list
Your tracking list is empty




NASA's NSSDC Master Catalog

Two Line Element Set (TLE):
1 46006U 11037HH  21290.90632635  .00004612  00000-0  34844-3 0  9995
2 46006  51.4422 156.0747 1950966 314.3732  31.2583 11.39532513 50690
Source of the keplerian elements: AFSPC